TimeCST,TemperatureF,Dew PointF,Humidity,Sea Level PressureIn,VisibilityMPH,Wind Direction,Wind SpeedMPH,Gust SpeedMPH,PrecipitationIn,Events,Conditions,WindDirDegrees,DateUTC
12:17 AM,46.4,26.6,46,29.44,2.0,SW,3.5,-,N/A,,Haze,230,2014-01-11 06:17:00
12:37 AM,51.8,24.8,35,29.44,3.0,WSW,8.1,-,N/A,,Haze,250,2014-01-11 06:37:00
12:53 AM,48.0,24.1,39,29.47,3.0,West,3.5,-,N/A,,Haze,270,2014-01-11 06:53:00
1:15 AM,55.4,24.8,31,29.43,3.0,West,8.1,-,N/A,,Haze,260,2014-01-11 07:15:00
1:53 AM,52.0,24.1,34,29.46,4.0,West,5.8,-,N/A,,Haze,270,2014-01-11 07:53:00
2:53 AM,42.1,23.0,47,29.47,4.0,West,4.6,-,N/A,,Haze,280,2014-01-11 08:53:00
3:29 AM,44.6,23.0,43,29.44,4.0,West,5.8,-,N/A,,Haze,280,2014-01-11 09:29:00
3:53 AM,44.1,21.9,42,29.48,5.0,West,6.9,-,N/A,,Haze,280,2014-01-11 09:53:00
4:20 AM,46.4,21.2,37,29.45,5.0,West,4.6,-,N/A,,Haze,280,2014-01-11 10:20:00
4:51 AM,48.2,21.2,34,29.45,5.0,West,6.9,-,N/A,,Haze,270,2014-01-11 10:51:00
4:53 AM,50.0,21.9,33,29.48,5.0,West,6.9,-,N/A,,Haze,270,2014-01-11 10:53:00
5:18 AM,48.2,21.2,34,29.45,4.0,West,6.9,-,N/A,,Haze,260,2014-01-11 11:18:00
5:29 AM,48.2,21.2,34,29.45,4.0,West,6.9,-,N/A,,Haze,270,2014-01-11 11:29:00
5:53 AM,43.0,23.0,45,29.49,4.0,WNW,6.9,-,N/A,,Haze,290,2014-01-11 11:53:00
6:53 AM,-9999,-9999,N/A,29.48,3.0,West,9.2,-,N/A,,Overcast,280,2014-01-11 12:53:00
7:53 AM,-9999,-9999,N/A,29.50,5.0,NW,10.4,-,N/A,,Haze,310,2014-01-11 13:53:00
8:53 AM,-9999,-9999,N/A,29.53,5.0,WNW,9.2,-,N/A,,Haze,300,2014-01-11 14:53:00
9:30 AM,-9999,-9999,N/A,29.54,6.0,NW,10.4,-,N/A,,Haze,310,2014-01-11 15:30:00
9:53 AM,-9999,-9999,N/A,29.55,6.0,NNW,11.5,-,N/A,,Haze,330,2014-01-11 15:53:00
10:00 AM,-9999,-9999,N/A,29.55,6.0,NW,10.4,-,N/A,,Haze,310,2014-01-11 16:00:00
10:53 AM,-9999,-9999,N/A,29.57,6.0,West,11.5,-,N/A,,Haze,280,2014-01-11 16:53:00
11:53 AM,-9999,-9999,N/A,29.57,5.0,WNW,6.9,-,N/A,,Haze,300,2014-01-11 17:53:00
12:16 PM,-9999,-9999,N/A,29.57,2.0,WNW,9.2,18.4,N/A,,Overcast,300,2014-01-11 18:16:00
12:26 PM,-9999,-9999,N/A,29.56,6.0,WNW,10.4,-,N/A,,Haze,290,2014-01-11 18:26:00
12:42 PM,-9999,-9999,N/A,29.56,6.0,WNW,8.1,-,N/A,,Haze,300,2014-01-11 18:42:00
12:53 PM,-9999,-9999,N/A,29.55,6.0,Variable,6.9,-,N/A,,Haze,0,2014-01-11 18:53:00
1:53 PM,30.0,21.0,69,29.58,7.0,West,8.1,18.4,N/A,,Mostly Cloudy,270,2014-01-11 19:53:00
2:53 PM,30.0,21.0,69,29.60,6.0,West,11.5,-,N/A,,Haze,260,2014-01-11 20:53:00
3:53 PM,28.9,21.0,72,29.62,7.0,West,11.5,-,N/A,,Overcast,260,2014-01-11 21:53:00
4:24 PM,28.4,21.2,74,29.59,7.0,West,6.9,-,N/A,,Scattered Clouds,260,2014-01-11 22:24:00
4:53 PM,27.0,19.0,72,29.63,7.0,West,3.5,-,N/A,,Clear,260,2014-01-11 22:53:00
5:53 PM,23.0,17.1,78,29.64,6.0,SSW,5.8,-,N/A,,Haze,200,2014-01-11 23:53:00
6:53 PM,19.9,14.0,78,29.59,3.0,SW,5.8,-,N/A,,Haze,230,2014-01-12 00:53:00
7:06 PM,19.4,14.0,80,29.60,2.5,WSW,5.8,-,N/A,,Haze,250,2014-01-12 01:06:00
7:16 PM,19.4,14.0,80,29.60,4.0,SW,6.9,-,N/A,,Haze,220,2014-01-12 01:16:00
7:53 PM,19.0,12.9,77,29.59,5.0,Calm,Calm,-,N/A,,Haze,0,2014-01-12 01:53:00
8:53 PM,19.0,12.9,77,29.59,3.0,SSW,4.6,-,N/A,,Haze,200,2014-01-12 02:53:00
9:53 PM,19.9,14.0,78,29.57,5.0,SSW,4.6,-,N/A,,Haze,200,2014-01-12 03:53:00
10:53 PM,21.9,16.0,78,29.55,5.0,SSW,3.5,-,N/A,,Haze,200,2014-01-12 04:53:00
11:53 PM,23.0,17.1,78,29.54,5.0,South,6.9,-,N/A,,Haze,180,2014-01-12 05:53:00